Location: Unspecified
(0.0000°N, 0.0000°E)
Time: 20:30:06
(UTC+00:00)

ARIANE 2 DEB - Pass Details

Date: 11 March 2026
Orbit: 701 x 35694 km, 8.0° (Epoch: 21 April)

Event Time Altitude Azimuth Distance (km) Brightness Sun altitude
Rises 19:45:50 0° 279° (W) 12,517 ? -23.9°
Reaches altitude 10° 19:53:34 10° 279° (W) 13,465 ? -25.9°
Enters shadow 04:07:49 - 264° (W) 25,358 ? -30.4°
Exits shadow 05:05:35 13° 260° (W) 12,872 ? -16.0°
Maximum altitude 05:37:19 65° 182° (S) 1,977 ? -8.1°
Drops below altitude 10° 05:43:06 10° 98° (E) 2,741 ? -6.7°
Sets 05:44:41 0° 95° (E) 3,394 ? -6.3°
